Weather History for KATY - March, 2013

Change the Weather History Date:

Sunday, March 10, 2013

  Actual Average Record
Temperature  
Mean Temperature 17 °F 27 °F  
Max Temperature 26 °F 36 °F 61 °F (1900)
Min Temperature 7 °F 18 °F -24 °F (1948)
Degree Days  
Heating Degree Days 48 38  
Month to date heating degree days 439 402  
Since 1 July heating degree days 6802 6813  
Cooling Degree Days 0 0  
Month to date cooling degree days 0 0  
Year to date cooling degree days 0 0  
Moisture  
Dew Point 15 °F    
Average Humidity 86    
Maximum Humidity 92    
Minimum Humidity 80    
Precipitation  
Precipitation 0.00 in 0.04 in 0.32 in (2010)
Month to date precipitation 1.07 0.30  
Year to date precipitation 2.29 1.38  
Snow  
Snow 0.00 in - - ()
Month to date snowfall 4.0  
Since 1 July snowfall 28.1  
Snow Depth 16.00 in    
Sea Level Pressure  
Sea Level Pressure 30.06 in    
Wind  
Wind Speed 22 mph (North)    
Max Wind Speed 32 mph    
Max Gust Speed 37 mph    
Visibility 4 miles    
Events Snow    
T = Trace of Precipitation, MM = Missing Value Source: NWS Daily Summary

Daily Weather History Graph

Daily Weather History Graph

Search for Another Location

Airport or City:

Trip Planner

Search our weather history database for the weather conditions in past years. The results will help you decide how hot, cold, wet, or windy it might be!

Date:

Astronomy

Mar. 10, 2013 Rise Set
Actual Time 7:49 AM CDT 7:28 PM CDT
Civil Twilight 7:20 AM CDT 7:57 PM CDT
Nautical Twilight 6:46 AM CDT 8:31 PM CDT
Astronomical Twilight 6:12 AM CDT 9:06 PM CDT
Moon 6:52 AM CDT (3/10) 6:37 PM CDT (3/10)
Length of Visible Light 12h 37m
Length of Day
11h 38m
Waning Crescent, 2% of the Moon is Illuminated
Mar 10
Waning Crescent
Mar 11
New
Mar 19
First Quarter
Mar 27
Full
Apr 2
Last Quarter

Hourly Weather History & Observations

Time (CDT) Temp. Windchill Dew Point Humidity Pressure Visibility Wind Dir Wind Speed Gust Speed Precip Events Conditions
12:44 AM 24.8 °F 9.0 °F 23.0 °F 93% 29.89 in 2.5 mi North 25.3 mph 36.8 mph 0.00 in Snow Light Snow
12:53 AM 25.0 °F 9.5 °F 23.0 °F 92% 29.97 in 4.0 mi North 24.2 mph - 0.00 in Snow Light Snow
1:53 AM 23.0 °F 7.2 °F 21.0 °F 92% 30.01 in 5.0 mi North 23.0 mph 28.8 mph 0.00 in   Overcast
3:53 AM 21.0 °F 4.3 °F 19.0 °F 92% 30.01 in 5.0 mi North 24.2 mph 31.1 mph N/A   Overcast
4:40 AM 21.2 °F 4.2 °F 17.6 °F 86% 29.94 in 4.0 mi North 25.3 mph 34.5 mph N/A   Overcast
4:53 AM 21.0 °F 3.6 °F 18.0 °F 88% 30.02 in 4.0 mi North 26.5 mph 32.2 mph N/A   Overcast
5:15 AM 19.4 °F 2.5 °F 17.6 °F 93% 29.95 in 5.0 mi North 23.0 mph 32.2 mph N/A   Overcast
5:45 AM 19.4 °F 2.5 °F 17.6 °F 93% 29.98 in 7.0 mi North 23.0 mph 29.9 mph N/A   Overcast
5:53 AM 19.9 °F 3.5 °F 18.0 °F 92% 30.06 in 7.0 mi North 21.9 mph 29.9 mph N/A   Overcast
7:53 AM 19.9 °F 3.2 °F 18.0 °F 92% 30.09 in 6.0 mi North 23.0 mph - N/A   Overcast
8:30 AM 19.4 °F 1.1 °F 15.8 °F 86% 30.06 in 2.5 mi North 27.6 mph - N/A   Overcast
8:53 AM 19.0 °F 1.3 °F 16.0 °F 88% 30.14 in 1.5 mi North 25.3 mph - 0.00 in Snow Light Snow
9:02 AM 19.4 °F 1.4 °F 15.8 °F 86% 30.06 in 1.2 mi North 26.5 mph 35.7 mph 0.00 in Snow Light Snow
9:12 AM 19.4 °F 1.8 °F 15.8 °F 86% 30.06 in 1.2 mi North 25.3 mph 29.9 mph 0.00 in Snow Light Snow
9:53 AM 19.0 °F 1.6 °F 16.0 °F 88% 30.13 in 1.0 mi North 24.2 mph 33.4 mph 0.00 in Snow Light Snow
10:15 AM 17.6 °F 0.1 °F 15.8 °F 93% 30.03 in 1.8 mi North 23.0 mph - 0.00 in Snow Light Snow
10:29 AM 17.6 °F -1.9 °F 14.0 °F 86% 30.04 in 1.0 mi North 29.9 mph 36.8 mph 0.00 in Snow Light Snow
10:40 AM 17.6 °F 0.1 °F 14.0 °F 86% 30.06 in 2.0 mi North 23.0 mph - 0.00 in Snow Light Snow
10:53 AM 18.0 °F 0.9 °F 14.0 °F 84% 30.15 in 2.5 mi North 21.9 mph 33.4 mph 0.00 in Snow Light Snow
11:13 AM 17.6 °F -0.6 °F 14.0 °F 86% 30.06 in 1.5 mi North 25.3 mph 32.2 mph 0.00 in Snow Light Snow
11:25 AM 19.4 °F 1.1 °F 15.8 °F 86% 30.06 in 1.2 mi North 27.6 mph - 0.00 in Snow Light Snow
11:53 AM 19.0 °F 1.3 °F 15.1 °F 85% 30.16 in 1.0 mi North 25.3 mph 32.2 mph 0.00 in Snow Light Snow
12:35 PM 19.4 °F 1.8 °F 15.8 °F 86% 30.08 in 1.0 mi NNE 25.3 mph 34.5 mph 0.00 in Snow Light Snow
12:53 PM 19.0 °F 0.3 °F 15.1 °F 85% 30.15 in 0.8 mi North 28.8 mph - 0.00 in Snow Light Snow
1:33 PM 19.4 °F 1.1 °F 15.8 °F 86% 30.06 in 1.0 mi North 27.6 mph - 0.00 in Snow Light Snow
1:41 PM 19.4 °F 1.8 °F 15.8 °F 86% 30.07 in 0.8 mi North 25.3 mph - 0.00 in Snow Light Snow
1:47 PM 19.4 °F 0.8 °F 15.8 °F 86% 30.05 in 1.0 mi North 28.8 mph 33.4 mph 0.00 in Snow Light Snow
1:53 PM 19.9 °F 2.2 °F 16.0 °F 85% 30.14 in 1.2 mi North 26.5 mph - 0.00 in Snow Light Snow
2:02 PM 19.4 °F 2.8 °F 15.8 °F 86% 30.06 in 1.8 mi NNE 21.9 mph 32.2 mph 0.00 in Snow Light Snow
2:14 PM 19.4 °F 3.2 °F 15.8 °F 86% 30.07 in 3.0 mi North 20.7 mph - 0.00 in Snow Light Snow
2:24 PM 19.4 °F 2.5 °F 15.8 °F 86% 30.05 in 2.5 mi North 23.0 mph - 0.00 in Snow Light Snow
2:43 PM 19.4 °F 3.2 °F 15.8 °F 86% 30.05 in 4.0 mi North 20.7 mph 29.9 mph 0.00 in   Haze
2:50 PM 19.4 °F 3.2 °F 17.6 °F 93% 30.05 in 2.0 mi North 20.7 mph - 0.00 in   Overcast
2:53 PM 19.9 °F 3.2 °F 16.0 °F 85% 30.14 in 2.0 mi North 23.0 mph - 0.00 in   Overcast
2:57 PM 19.4 °F 2.1 °F 15.8 °F 86% 30.05 in 3.0 mi North 24.2 mph - N/A   Overcast
3:53 PM 19.9 °F 3.2 °F 15.1 °F 81% 30.12 in 3.0 mi NNE 23.0 mph 31.1 mph N/A   Haze
4:53 PM 19.9 °F 3.2 °F 16.0 °F 85% 30.11 in 5.0 mi North 23.0 mph - N/A   Overcast
5:05 PM 19.4 °F 1.8 °F 15.8 °F 86% 30.02 in 4.0 mi North 25.3 mph - N/A   Haze
5:41 PM 19.4 °F 2.1 °F 14.0 °F 80% 30.03 in 9.0 mi North 24.2 mph 28.8 mph N/A   Overcast
5:53 PM 18.0 °F 1.3 °F 14.0 °F 84% 30.12 in 8.0 mi North 20.7 mph - N/A   Mostly Cloudy
6:18 PM 17.6 °F 1.7 °F 14.0 °F 86% 30.04 in 10.0 mi North 18.4 mph - N/A   Scattered Clouds
6:53 PM 17.1 °F -0.6 °F 12.9 °F 84% 30.10 in 9.0 mi North 23.0 mph - N/A   Clear
7:53 PM 16.0 °F -2.5 °F 12.0 °F 84% 30.10 in 9.0 mi North 24.2 mph - N/A   Clear
9:53 PM 12.9 °F -2.2 °F 9.0 °F 84% 30.14 in 10.0 mi North 13.8 mph - N/A   Clear
10:53 PM 10.9 °F -2.6 °F 6.1 °F 81% 30.12 in 10.0 mi North 10.4 mph - N/A   Clear
11:53 PM 9.0 °F -5.9 °F 5.0 °F 84% 30.10 in 10.0 mi North 11.5 mph - N/A   Clear
12:53 AM 7.0 °F -6.6 °F 3.0 °F 84% 30.09 in 10.0 mi NNW 9.2 mph - N/A   Clear